This demonstration page uses our WeatherBlox Daily Observations layout. Learn more.

39.08367, -84.50855

Hourly Observations for January 16, 2019

Temp ( °F °C ) Dew Point ( °F °C ) Humidity (%) Winds ( mph kmh ) Pressure ( in mb ) Visibility ( mi km ) Precip ( " mm )
12:53 am 00:53 Cloudy 33 0.6 29 -1.7 85 85 VRB 7 11 30.18 1022 7 11.265408 0 0
1:53 am 01:53 Cloudy 33 0.6 29 -1.7 85 85 SSW 10 17 30.18 1022 7 11.265408 0 0
2:53 am 02:53 Cloudy 34 1.1 30 -1.1 85 85 SSW 8 13 30.18 1022 7 11.265408 0 0
3:53 am 03:53 Cloudy 34 1.1 30 -1.1 85 85 SW 9 15 30.18 1022 7 11.265408 0 0
4:53 am 04:53 Cloudy with Mist and Fog 34 1.1 31 -0.6 89 89 SW 7 11 30.18 1022 3 4.828032 0 0
5:07 am 05:07 Cloudy with Mist and Fog 34 1.1 32 0 92 92 SW 6 9 30.24 1024 3 4.828032 0 0
5:25 am 05:25 Cloudy with Mist and Fog 34 1.1 32 0 92 92 SW 7 11 30.24 1024 2.5 4.02336 0 0
5:53 am 05:53 Cloudy with Mist and Fog 33 0.6 32 0 96 96 SSW 5 7 30.21 1023 2 3.218688 0 0
6:00 am 06:00 Cloudy with Mist and Fog 33 0.6 32 0 96 96 SSW 5 7 30.24 1024 1.75 2.816352 0 0
6:07 am 06:07 Cloudy with Mist and Fog 33 0.6 32 0 96 96 S 5 7 30.24 1024 2 3.218688 0 0
6:16 am 06:16 Cloudy with Mist and Fog 33 0.6 32 0 96 96 SSW 5 7 30.24 1024 1.75 2.816352 0 0
6:37 am 06:37 Cloudy with Mist and Fog 34 1.1 32 0 92 92 SSW 5 7 30.24 1024 2.5 4.02336 0 0
6:53 am 06:53 Cloudy with Mist and Fog 33 0.6 33 0.6 100 100 SSW 5 7 30.24 1024 3 4.828032 0 0
7:53 am 07:53 Cloudy with Light Rain 33 0.6 32 0 96 96 S 3 6 30.24 1024 3 4.828032 0.01 0.254
8:53 am 08:53 Cloudy with Mist and Fog 34 1.1 32 0 92 92 S 5 7 30.24 1024 3 4.828032 0.001 0.001
9:53 am 09:53 Cloudy 35 1.7 30 -1.1 82 82 W 5 7 30.27 1025 10 16.09344 0 0
10:53 am 10:53 Cloudy 35 1.7 30 -1.1 82 82 W 6 9 30.3 1026 10 16.09344 0 0
11:53 am 11:53 Cloudy 36 2.2 30 -1.1 79 79 Calm 30.27 1025 10 16.09344 0 0
12:53 pm 12:53 Cloudy 36 2.2 29 -1.7 76 76 W 6 9 30.27 1025 10 16.09344 0 0
1:53 pm 13:53 Cloudy 36 2.2 27 -2.8 70 70 W 8 13 30.27 1025 10 16.09344 0 0
2:53 pm 14:53 Cloudy 36 2.2 28 -2.2 73 73 NW 3 6 30.27 1025 10 16.09344 0 0
3:53 pm 15:53 Cloudy 36 2.2 28 -2.2 73 73 NNW 3 6 30.27 1025 10 16.09344 0 0
4:53 pm 16:53 Cloudy 35 1.7 29 -1.7 78 78 NNW 3 6 30.3 1026 10 16.09344 0 0
5:53 pm 17:53 Cloudy 34 1.1 30 -1.1 85 85 Calm 30.3 1026 10 16.09344 0 0
6:53 pm 18:53 Cloudy 35 1.7 29 -1.7 78 78 Calm 30.3 1026 10 16.09344 0 0
7:53 pm 19:53 Cloudy 34 1.1 29 -1.7 82 82 NNE 6 9 30.3 1026 10 16.09344 0 0
8:53 pm 20:53 Cloudy 34 1.1 30 -1.1 85 85 ENE 3 6 30.3 1026 10 16.09344 0 0
9:53 pm 21:53 Cloudy 34 1.1 30 -1.1 85 85 Calm 30.3 1026 10 16.09344 0 0
10:53 pm 22:53 Cloudy 34 1.1 29 -1.7 82 82 Calm 30.3 1026 10 16.09344 0 0
11:53 pm 23:53 Cloudy 33 0.6 31 -0.6 92 92 Calm 30.3 1026 9 14.484096 0 0

Powered by AerisWeather